Location: Brunoy
(48.6942°N, 2.4922°E)
Time: 05:46:12
(UTC+00:00)

Daily predictions for brighter satellites

Satellite Brightness Start Highest point End
(mag) Time Altitude Azimuth Time Altitude Azimuth Time Altitude Azimuth
Cosmos 2322 Rocket 4.4 03:22:03 20° NE 03:22:03 20° NE 03:23:56 10° NE
Cosmos 2360 Rocket 4.4 03:22:34 21° E 03:22:34 21° E 03:25:50 10° NE
SJ 16-02 3.8 03:59:59 20° E 03:59:59 20° E 04:01:56 10° ESE
Cosmos 2278 Rocket 4.3 04:10:03 17° N 04:12:20 21° NE 04:16:33 10° E
BREEZE-M DEB (TANK) 3.8 04:13:17 83° S 04:13:17 83° S 04:30:54 10° ESE
Meteor 2-5 Rocket 4.3 04:14:15 52° ESE 04:14:15 52° ESE 04:19:06 10° SSE
Cosmos 1844 Rocket 3.5 04:15:58 44° SE 04:15:58 44° SE 04:19:45 10° SE
Cosmos 2333 Rocket 4.1 04:15:56 10° SSE 04:20:31 26° ESE 04:25:09 10° NE
ADEOS 4.1 04:24:57 10° NNE 04:30:07 57° ESE 04:31:39 41° SSE
Meteor 2-11 Rocket 4.3 04:35:22 79° S 04:35:47 90° NNW 04:42:00 10° N
Cosmos 2219 Rocket 3.8 04:33:43 10° SSE 04:38:35 32° ESE 04:43:29 10° NE
Cosmos 2233 Rocket 4.0 04:36:48 10° S 04:43:04 83° E 04:49:20 10° N
Cosmos 44 4.1 04:48:07 45° S 04:48:07 45° S 04:52:00 10° SSE
METEOR-M 4.0 04:42:21 10° NNE 04:47:45 89° WNW 04:48:03 81° SSW
SL-16 R/B 3.1 04:55:43 35° NNW 04:55:43 35° NNW 04:59:30 10° NNE
Cosmos 724 4.5 04:55:15 55° NW 04:55:15 55° NW 05:01:05 10° NNE
CZ-4B R/B 3.9 04:52:38 10° NNE 04:56:02 39° E 04:59:27 10° S
USA 215 3.9 04:50:49 10° ENE 04:56:54 43° N 04:58:40 36° NW
deb Chang Zheng 4 4.1 04:53:48 10° NNE 04:58:01 55° ESE 05:02:11 10° S
ALOS 4.3 04:54:36 10° N 04:55:34 16° N 04:55:34 16° N
Meteor 1-24 Rocket 3.5 05:00:43 50° NNW 05:02:11 78° W 05:07:43 10° S
Cosmos 2322 Rocket 2.8 05:03:54 40° NNW 05:03:54 40° NNW 05:08:13 10° NNE
USA 276 4.2 05:06:02 24° SE 05:06:02 24° SE 05:07:30 10° SE
Cosmos 2360 Rocket 2.0 05:04:24 62° WSW 05:05:08 70° WNW 05:10:48 10° NNE
IRIDIUM 106 4.4 05:02:50 10° S 05:08:02 76° E 05:13:16 10° N
Cosmos 1758 4.4 05:05:28 10° SSE 05:09:18 45° E 05:13:12 10° NNE
Cosmos 1892 Rocket 3.9 05:07:07 24° N 05:09:39 63° ENE 05:13:59 10° SSE
Okean 1 Rocket 4.1 05:15:34 33° N 05:15:34 33° N 05:18:11 10° N
Cosmos 990 Rocket 4.1 05:13:55 25° NNW 05:17:00 72° ENE 05:22:07 10° SSE
SAR-Lupe-4 3.6 05:13:40 10° SSE 05:17:07 79° ESE 05:17:07 79° ESE
Cosmos 1980 Rocket 4.2 05:22:21 13° NNW 05:22:21 13° NNW 05:24:03 10° N
COSMO-SKYMED 1 2.9 05:20:02 10° S 05:23:31 46° SW 05:23:31 46° SW
Cosmos 1844 4.0 05:23:43 43° W 05:24:26 45° WSW 05:29:53 10° S
FENGYUN 3A 4.4 05:19:36 10° N 05:23:25 34° NW 05:23:25 34° NW
Cosmos 2237 4.5 05:25:14 42° W 05:26:07 46° NW 05:31:39 10° NNE
GEOS 3 Rocket 4.2 05:21:59 10° S 05:26:54 37° WSW 05:27:19 36° WSW
SAR-Lupe-1 3.9 05:25:16 10° S 05:28:50 76° WSW 05:28:57 75° W
Cosmos 1898 Rocket 3.5 05:30:05 19° NNW 05:33:56 85° ENE 05:39:07 10° SSE
Lacrosse 5 rocket 2.3 05:34:22 29° NNW 05:35:22 33° NNE 05:38:50 10° E
SJ 16-02 1.6 05:37:01 43° W 05:37:07 43° WSW 05:41:15 10° S
Okean 1-7 Rocket 3.7 05:32:33 10° N 05:37:09 80° E 05:41:41 10° SSE
Cosmos 1867 3.7 05:35:55 34° WSW 05:38:00 53° NW 05:43:24 10° NNE
BREEZE-M DEB (TANK) 2.2 05:38:45 55° ESE 05:38:45 55° ESE 05:40:41 10° E
Cosmos 1470 2.6 05:34:41 10° SSW 05:38:31 60° WNW 05:42:21 10° N
Meteor PRIRODA 3.5 05:38:52 10° N 05:42:28 60° WNW 05:46:02 10° SSW
YAOGAN 6 2.9 05:39:30 10° NNE 05:43:11 69° ESE 05:46:51 10° S
Cosmos 1763 Rocket 3.7 05:39:17 10° SSW 05:44:23 71° ESE 05:49:37 10° NNE
Cosmos 1689 Rocket 3.3 05:41:58 10° S 05:43:39 29° SSW 05:43:39 29° SSW
Cosmos 921 Rocket 3.3 05:40:37 10° S 05:44:52 66° ESE 05:49:05 10° NNE
Cosmos 1544 Rocket 3.9 05:43:34 10° S 05:47:50 64° E 05:52:08 10° NNE
Cosmos 2034 Rocket 4.3 05:41:49 10° S 05:48:08 72° E 05:54:30 10° NNE
ERS-2 3.5 05:46:36 10° SSW 05:48:37 24° SW 05:48:37 24° SW
PSLV R/B 4.2 05:47:46 10° S 05:51:41 44° W 05:53:40 25° NW
BREEZE M DEB (TANK) 3.3 05:52:14 17° SSW 05:52:14 17° SSW 05:53:18 10° SSE
Cosmos 1356 Rocket 3.5 05:49:12 10° SSW 05:53:06 46° WNW 05:57:06 10° N
Cosmos 2369 Rocket 4.5 05:50:43 10° N 05:54:06 16° NE 05:57:28 10° ENE
SL-8 R/B 3.7 05:52:30 30° W 05:54:54 77° SSW 05:59:44 10° ESE
Cosmos 2084 3.5 05:50:57 10° SW 05:55:12 80° SE 05:59:34 10° NE
Cosmos 2278 Rocket 2.2 05:51:55 12° NNW 05:57:17 86° ENE 06:02:57 10° SSE
Cosmos 1844 Rocket 3.9 05:57:41 21° WSW 05:57:41 21° WSW 06:01:29 10° SSW
MOS 1 Rocket 3.9 05:54:39 10° SSW 05:59:28 39° W 06:03:43 12° NNW
Cosmos 2322 3.8 05:57:06 10° SW 06:02:40 52° NW 06:08:18 10° NNE
Nadezhda 4 Rocket 3.9 05:57:23 10° NNW 06:03:33 79° W 06:09:39 10° S
Cosmos 2333 Rocket 2.2 05:58:52 10° SW 06:04:25 58° WNW 06:10:01 10° NNE
NOAA 6 4.2 05:59:34 10° NNE 06:04:47 81° ESE 06:09:59 10° SSW
Cosmos 1626 Rocket 3.6 06:00:54 10° N 06:05:24 84° E 06:09:53 10° S
Cosmos 1726 2.4 06:02:10 10° SSW 06:05:42 42° WNW 06:09:17 10° N
PSLV R/B 3.7 06:02:12 10° N 06:06:06 76° WNW 06:10:03 10° SSW
Meteor 2-10 4.3 06:02:02 10° SSW 06:07:36 55° WNW 06:13:03 10° N
H-2A R/B 3.1 06:06:14 10° N 06:09:40 37° WNW 06:13:05 10° SW
Cosmos 2237 Rocket 3.0 06:05:29 10° S 06:10:59 55° ESE 06:16:32 10° NE
Cosmos 468 Rocket 3.9 06:06:09 10° SSW 06:11:21 67° WNW 06:16:40 10° NNE
Okean O Rocket 2.6 06:08:04 10° NNE 06:12:21 50° E 06:16:35 10° S
Cosmos 1937 Rocket 3.5 06:09:40 10° NNW 06:14:56 62° WSW 06:20:06 10° S
Cosmos 1455 Rocket 3.3 06:11:09 10° SSW 06:15:20 45° WNW 06:19:33 10° N
Cosmos 1340 2.7 06:12:03 10° N 06:15:50 78° ENE 06:19:35 10° SSE
BREEZE-M DEB (TANK) 4.4 06:13:00 10° SSW 06:16:13 43° SE 06:25:56 10° ENE
Envisat 3.0 06:12:04 10° N 06:17:06 61° WNW 06:22:05 10° SSW
Cosmos 1953 2.2 06:14:58 10° SSW 06:18:55 65° W 06:22:54 10° N
Cosmos 2219 Rocket 2.4 06:16:58 10° SW 06:22:22 48° NW 06:27:46 10° NNE
Cosmos 1943 Rocket 3.7 06:18:14 10° NNW 06:23:14 31° NE 06:28:13 10° ESE
COSMOS 2428 2.8 06:17:48 10° SW 06:23:24 55° NW 06:29:00 10° NNE
Cosmos 1758 Rocket 4.3 06:20:38 10° N 06:25:05 57° ENE 06:29:30 10° SSE
Cosmos 44 Rocket 3.5 06:20:40 12° NW 06:25:28 74° SW 06:30:40 10° SSE
CZ-2C R/B 2.6 06:22:38 10° S 06:27:48 67° WSW 06:33:05 10° NNW
Cosmos 372 Rocket 4.0 06:24:22 10° NNW 06:29:39 85° WSW 06:34:54 10° SSE
CZ-4B R/B 4.0 06:28:27 10° NNW 06:30:54 17° WNW 06:33:20 10° WSW
DMSP B5D2-2 4.1 06:28:21 10° SSE 06:33:35 80° WSW 06:38:54 10° NNW
Lacrosse 4 Rocket 4.2 06:32:25 10° SSE 06:35:49 24° ESE 06:39:16 10° ENE
USA 215 3.6 06:32:57 10° E 06:39:21 61° NNE 06:45:46 10° NW
SL-16 R/B 4.0 06:37:37 10° NW 06:39:48 13° NNW 06:42:16 10° N
USA 276 4.5 06:38:43 10° WSW 06:40:07 12° SW 06:41:31 10° SSW
NOAA 11 4.3 06:35:17 10° NNE 06:40:49 87° ESE 06:46:17 10° SSW
Cosmos 2026 Rocket 4.1 06:35:10 10° N 06:41:31 85° W 06:47:53 10° S
Cosmos 1980 3.7 06:37:05 10° SSW 06:42:45 84° WNW 06:48:27 10° NNE
Cosmos 1602 Rocket 3.7 06:39:33 10° NNW 06:43:53 54° W 06:48:13 10° S
CZ-4B DEB 4.4 06:39:41 10° N 06:45:05 52° WNW 06:50:27 10° SW
CORIOLIS 4.1 06:43:02 10° NNE 06:48:24 78° WNW 06:53:44 10° SSW
Cosmos 2322 Rocket 4.0 06:45:55 10° WNW 06:48:25 13° NNW 06:50:56 10° N
H-2A R/B 4.3 06:45:15 10° NNE 06:49:53 30° E 06:54:35 10° SSE
Cosmos 2360 Rocket 3.6 06:46:31 10° WNW 06:50:14 18° NW 06:53:58 10° N
Cosmos 2150 Rocket 4.2 06:45:54 10° NNW 06:51:14 79° ENE 06:56:36 10° SSE
Cosmos 1300 3.2 06:48:15 10° S 06:52:01 65° E 06:55:49 10° NNE
H-2A R/B 2.9 06:50:35 10° N 06:54:48 45° WNW 06:59:04 10° SW
NOAA 12 4.2 06:49:58 10° N 06:55:08 57° WNW 07:00:18 10° SSW
Cosmos 1908 3.8 06:55:51 10° SW 06:59:19 34° WNW 07:02:50 10° N
SMAP 3.4 06:56:23 10° N 07:00:49 44° WNW 07:05:13 10° SW
Cosmos 1939 Rocket 2.8 06:57:15 10° N 07:01:16 78° WNW 07:05:09 10° SSW
Cosmos 2292 Rocket 3.6 06:58:47 10° N 07:01:48 49° ENE 07:04:40 10° SSE
Cosmos 1825 Rocket 3.6 06:58:19 10° N 07:02:47 83° W 07:07:15 10° S
Meteor 1-11 4.3 07:00:06 10° NNW 07:05:38 61° W 07:11:07 10° S
